Chino, CA

9:08 AM PDT on April 28, 2017 (GMT -0700)
Chino

Weather History for KCNO - September, 2013

Change the Weather History Date:

Wednesday, September 4, 2013

  Actual Average Record
Temperature  
Mean Temperature 86 °F -  
Max Temperature 105 °F 90 °F 108 °F (2010)
Min Temperature 69 °F 56 °F 51 °F (2005)
Cooling Degree Days 20    
Growing Degree Days 36 (Base 50)    
Moisture  
Dew Point 58 °F    
Average Humidity 43    
Maximum Humidity 78    
Minimum Humidity 22    
Precipitation  
Precipitation 0.00 in - - ()
Sea Level Pressure  
Sea Level Pressure 29.87 in    
Wind  
Wind Speed 3 mph (WSW)    
Max Wind Speed 15 mph    
Max Gust Speed 21 mph    
Visibility 10 miles    
Events      
Averages and records for this station are not official NWS values.
T = Trace of Precipitation, MM = Missing Value Source: NWS Daily Summary

Daily Weather History Graph

Daily Weather History Graph

Search for Another Location

Airport or City:

Trip Planner

Search our weather history database for the weather conditions in past years. The results will help you decide how hot, cold, wet, or windy it might be!

Date:

Astronomy

Sep. 04, 2013 Rise Set
Actual Time 6:26 AM PDT 7:11 PM PDT
Civil Twilight 6:01 AM PDT 7:37 PM PDT
Nautical Twilight 5:31 AM PDT 8:07 PM PDT
Astronomical Twilight 5:00 AM PDT 8:37 PM PDT
Moon 5:42 AM PDT (9/4) 6:35 PM PDT (9/4)
Length of Visible Light 13h 36m
Length of Day
12h 45m
Waning Crescent, 1% of the Moon is Illuminated
Sep 4
Waning Crescent
Sep 5
New
Sep 12
First Quarter
Sep 19
Full
Sep 26
Last Quarter

Hourly Weather History & Observations

Time (PDT) Temp. Heat Index Dew Point Humidity Pressure Visibility Wind Dir Wind Speed Gust Speed Precip Events Conditions
12:53 AM 75.9 °F - 61.0 °F 60% 29.88 in 10.0 mi Calm Calm - N/A   Clear
1:53 AM 73.0 °F - 61.0 °F 66% 29.88 in 9.0 mi Calm Calm - N/A   Clear
2:53 AM 73.0 °F - 61.0 °F 66% 29.88 in 9.0 mi Calm Calm - N/A   Clear
3:53 AM 71.1 °F - 63.0 °F 75% 29.88 in 6.0 mi Calm Calm - N/A   Haze
4:53 AM 70.0 °F - 60.1 °F 71% 29.87 in 9.0 mi Calm Calm - N/A   Clear
5:53 AM 69.1 °F - 62.1 °F 78% 29.88 in 8.0 mi Calm Calm - N/A   Clear
6:53 AM 72.0 °F - 61.0 °F 68% 29.90 in 10.0 mi Calm Calm - N/A   Partly Cloudy
7:53 AM 77.0 °F - 63.0 °F 62% 29.92 in 10.0 mi Calm Calm - N/A   Partly Cloudy
8:53 AM 84.0 °F 84.4 °F 61.0 °F 46% 29.91 in 10.0 mi Calm Calm - N/A   Clear
9:53 AM 89.1 °F 88.2 °F 59.0 °F 36% 29.91 in 10.0 mi Calm Calm - N/A   Partly Cloudy
10:53 AM 95.0 °F 93.7 °F 57.0 °F 28% 29.89 in 10.0 mi Calm Calm - N/A   Partly Cloudy
11:53 AM 100.9 °F 99.6 °F 55.9 °F 22% 29.87 in 10.0 mi West 9.2 mph - N/A   Scattered Clouds
12:53 PM 102.9 °F 103.0 °F 57.9 °F 23% 29.85 in 10.0 mi WNW 11.5 mph 17.3 mph N/A   Scattered Clouds
1:53 PM 102.9 °F 102.4 °F 57.0 °F 22% 29.84 in 10.0 mi West 12.7 mph - N/A   Scattered Clouds
2:53 PM 102.9 °F 103.0 °F 59.0 °F 23% 29.82 in 10.0 mi SW 13.8 mph 20.7 mph N/A   Scattered Clouds
3:53 PM 100.9 °F 100.0 °F 57.0 °F 23% 29.83 in 10.0 mi SW 8.1 mph - N/A   Scattered Clouds
4:53 PM 99.0 °F 98.1 °F 57.0 °F 25% 29.82 in 10.0 mi West 13.8 mph - N/A   Scattered Clouds
5:53 PM 96.1 °F 94.1 °F 55.0 °F 25% 29.83 in 10.0 mi West 15.0 mph - N/A   Scattered Clouds
6:53 PM 91.0 °F 88.9 °F 55.0 °F 29% 29.83 in 10.0 mi West 12.7 mph - N/A   Scattered Clouds
7:53 PM 87.1 °F 85.1 °F 54.0 °F 32% 29.85 in 10.0 mi WSW 10.4 mph - N/A   Partly Cloudy
8:53 PM 84.0 °F 82.5 °F 53.1 °F 34% 29.87 in 10.0 mi WSW 4.6 mph - N/A   Clear
9:53 PM 82.0 °F 81.4 °F 55.0 °F 39% 29.87 in 10.0 mi Calm Calm - N/A   Clear
10:53 PM 80.1 °F 80.0 °F 54.0 °F 40% 29.88 in 10.0 mi Calm Calm - N/A   Clear
11:53 PM 77.0 °F - 57.0 °F 50% 29.87 in 7.0 mi Calm Calm - N/A   Clear